{"data":{"norad_id":53262,"intl_designator":"2022-086W","name":"STARLINK-4085","alt_names":[],"object_type":"PAYLOAD","status":"ACTIVE","operator":null,"country":"US","launch_date":"2022-07-24","launch_site_code":"AFETR","launch_vehicle":null,"mission":null,"orbit_class":"UNKNOWN","rcs_meters":null,"size_class":null,"mass_kg":null,"dimensions":null,"purposes":["comms"],"wikipedia_slug":null,"has_3d_model":false,"image_url":null,"decayed_at":null,"tle_current":{"epoch":"2026-09-19T08:15:02.820096Z","epoch_age_seconds":175114,"freshness":"STALE","line1":"1 53262U 22086W   26262.34378264  .00000272  00000+0  19604-4 0  9995","line2":"2 53262  53.1602  31.2999 0001068  78.1840 281.9282 15.33546241230486","mean_motion":15.33546241,"eccentricity":0.0001068,"inclination_deg":53.1602,"raan_deg":31.2999,"arg_perigee_deg":78.184,"mean_anomaly_deg":281.9282,"bstar":1.9604e-5,"rev_number":23048,"period_min":93.90000519717,"perigee_km":464.51109618908,"apogee_km":465.97284193687,"semimajor_km":6843.378969063,"source":"CELESTRAK","updated_at":"2026-09-20T09:00:40.216242Z"}}}